KD2PWM Weather Reports


time (UTC)temp
F
wind
direction
speed
knots
gust
knots
rain 1hr
in
rain 24hr
in
rain mn
in
humidity
%
barometer
mb
20260503050043 39 0 0.0 1.7 0.00 0.02 0.00 70 1012.4
20260503044542 39 228 0.0 2.6 0.00 0.06 0.00 71 1012.4
20260503043050 39 0 0.0 1.7 0.00 0.06 0.00 71 1012.5
20260503041538 39 0 0.0 0.9 0.00 0.06 0.00 70 1012.5
20260503040039 39 0 0.0 1.7 0.00 0.06 0.00 71 1012.7
20260503034554 39 0 0.0 0.9 0.00 0.16 0.06 70 1012.8
20260503033041 40 0 0.0 0.0 0.00 0.16 0.06 69 1012.9
20260503031537 41 0 0.0 0.0 0.00 0.16 0.06 67 1013.0
20260503030037 41 242 0.0 1.7 0.00 0.16 0.06 64 1013.2
20260503024538 43 0 0.0 0.0 0.00 0.17 0.06 62 1013.1
20260503023037 43 242 0.0 1.7 0.00 0.17 0.06 59 1013.3
20260503021542 44 0 0.0 1.7 0.00 0.17 0.06 58 1013.3
20260503020040 44 262 0.0 2.6 0.00 0.17 0.06 57 1013.4
20260503014538 45 0 0.0 2.6 0.00 0.17 0.06 56 1013.4
20260503013042 45 271 0.0 3.5 0.00 0.17 0.06 54 1013.4
20260503011537 45 304 0.0 3.5 0.00 0.17 0.06 54 1013.2
20260503010038 46 269 0.9 2.6 0.00 0.17 0.06 54 1013.2
20260503004605 47 0 0.0 4.3 0.00 0.17 0.06 54 1013.0
20260503003045 47 352 0.0 3.5 0.00 0.17 0.06 52 1012.9
20260503001545 48 274 0.9 2.6 0.00 0.17 0.06 51 1012.7
20260503000043 48 234 0.9 1.7 0.00 0.17 0.06 50 1012.7
20260502234549 49 255 0.9 6.1 0.00 0.17 0.06 49 1012.6
20260502233041 49 276 0.9 5.2 0.00 0.17 0.06 49 1012.5
20260502231542 50 276 1.7 6.1 0.00 0.17 0.06 48 1012.2
20260502230040 50 202 0.9 5.2 0.00 0.17 0.06 48 1012.1
20260502224544 51 263 1.7 5.2 0.00 0.17 0.06 46 1012.1
20260502223042 52 211 0.9 7.0 0.00 0.17 0.06 45 1012.0
20260502221544 52 265 0.9 5.2 0.00 0.17 0.06 46 1011.8
20260502220039 53 272 1.7 5.2 0.00 0.17 0.06 45 1011.6
20260502214553 52 244 1.7 6.1 0.00 0.17 0.06 46 1011.5
20260502213039 53 302 2.6 7.8 0.00 0.17 0.06 42 1011.5
20260502211538 54 292 1.7 7.0 0.00 0.17 0.06 42 1011.4
20260502210045 54 273 1.7 9.6 0.00 0.17 0.06 41 1011.4
20260502204537 54 271 1.7 8.7 0.00 0.17 0.06 42 1011.5
20260502203045 55 286 0.9 7.8 0.00 0.17 0.06 42 1011.6
20260502201543 55 273 2.6 7.8 0.00 0.17 0.06 42 1011.5
20260502200044 55 258 2.6 7.8 0.00 0.17 0.06 41 1011.6
20260502194538 55 270 2.6 10.4 0.00 0.17 0.06 40 1011.8
20260502193039 55 257 2.6 7.8 0.00 0.17 0.06 42 1011.7
20260502191540 55 277 5.2 10.4 0.00 0.17 0.06 40 1011.9
20260502190050 55 265 2.6 7.8 0.00 0.17 0.06 43 1012.0
20260502184542 56 160 3.5 8.7 0.00 0.17 0.06 44 1011.9
20260502183039 55 234 1.7 9.6 0.00 0.17 0.06 45 1011.7
20260502181544 54 246 1.7 5.2 0.00 0.17 0.06 48 1011.8
20260502163048 52 171 2.6 6.1 0.00 0.17 0.06 60 1012.5
20260502161545 50 0 0.9 3.5 0.00 0.17 0.06 64 1012.8
20260502151551 49 259 1.7 5.2 0.00 0.17 0.06 68 1013.0
20260502123047 43 240 0.9 5.2 0.00 0.17 0.06 90 1013.1
20260502121537 43 182 0.0 1.7 0.00 0.17 0.06 91 1013.1
20260502114548 42 0 0.0 2.6 0.00 0.17 0.06 92 1013.0
20260502113043 42 0 0.0 2.6 0.00 0.17 0.06 93 1012.9
20260502111540 42 254 0.9 2.6 0.00 0.17 0.06 93 1012.8
20260502110039 43 254 0.0 1.7 0.00 0.17 0.06 93 1012.8
20260502104538 43 0 0.0 0.9 0.00 0.17 0.06 94 1012.4
20260502103037 43 255 0.0 2.6 0.00 0.17 0.06 94 1012.2
20260502101540 44 227 0.0 2.6 0.00 0.17 0.06 93 1012.0
20260502100108 45 210 0.9 4.3 0.00 0.17 0.06 94 1011.7
20260502070048 46 0 0.0 0.9 0.01 0.17 0.06 93 1011.8
20260502064541 46 0 0.0 0.0 0.01 0.16 0.05 93 1011.7
20260502063038 46 0 0.0 0.9 0.01 0.16 0.05 93 1011.9
20260502061540 46 0 0.0 0.0 0.01 0.16 0.05 93 1011.9
20260502060038 46 0 0.0 0.9 0.01 0.16 0.05 93 1012.0
20260502054545 46 0 0.0 0.0 0.00 0.15 0.04 92 1012.1
20260502053041 46 240 0.0 2.6 0.00 0.15 0.04 92 1011.7
20260502051541 46 0 0.0 0.9 0.01 0.15 0.04 92 1012.2